Year,Month,Day,Hour,Minute,Value (Times are PST for temperature in C)
2004,08,03,00,00,16.80
2004,08,03,00,01,16.80
2004,08,03,00,02,16.80
2004,08,03,00,03,16.80
2004,08,03,00,04,16.80
2004,08,03,00,05,16.80
2004,08,03,00,06,16.80
2004,08,03,00,07,16.80
2004,08,03,00,08,16.80
2004,08,03,00,09,16.70
2004,08,03,00,10,16.70
2004,08,03,00,11,16.60
2004,08,03,00,12,16.60
2004,08,03,00,13,16.60
2004,08,03,00,14,16.70
2004,08,03,00,15,16.70
2004,08,03,00,16,16.60
2004,08,03,00,17,16.70
2004,08,03,00,18,16.70
2004,08,03,00,19,16.70
2004,08,03,00,20,16.70
2004,08,03,00,21,16.60
2004,08,03,00,22,16.50
2004,08,03,00,23,16.50
2004,08,03,00,24,16.40
2004,08,03,00,25,16.40
2004,08,03,00,26,16.40
2004,08,03,00,27,16.40
2004,08,03,00,28,16.40
2004,08,03,00,29,16.40
2004,08,03,00,30,16.40
2004,08,03,00,31,16.40
2004,08,03,00,32,16.40
2004,08,03,00,33,16.40
2004,08,03,00,34,16.30
2004,08,03,00,35,16.40
2004,08,03,00,36,16.30
2004,08,03,00,37,16.40
2004,08,03,00,38,16.30
2004,08,03,00,39,16.40
2004,08,03,00,40,16.40
2004,08,03,00,41,16.40
2004,08,03,00,42,16.40
2004,08,03,00,43,16.40
2004,08,03,00,44,16.40
2004,08,03,00,45,16.40
2004,08,03,00,46,16.40
2004,08,03,00,47,16.40
2004,08,03,00,48,16.40
2004,08,03,00,49,16.40
2004,08,03,00,50,16.40
2004,08,03,00,51,16.40
2004,08,03,00,52,16.50
2004,08,03,00,53,16.50
2004,08,03,00,54,16.60
2004,08,03,00,55,16.70
2004,08,03,00,56,16.70
2004,08,03,00,57,16.70
2004,08,03,00,58,16.70
2004,08,03,00,59,16.80
2004,08,03,01,00,16.90
2004,08,03,01,01,16.90
2004,08,03,01,02,16.90
2004,08,03,01,03,16.90
2004,08,03,01,04,17.00
2004,08,03,01,05,17.00
2004,08,03,01,06,17.00
2004,08,03,01,07,17.10
2004,08,03,01,08,17.10
2004,08,03,01,09,17.10
2004,08,03,01,10,17.20
2004,08,03,01,11,17.20
2004,08,03,01,12,17.30
2004,08,03,01,13,17.30
2004,08,03,01,14,17.10
2004,08,03,01,15,17.10
2004,08,03,01,16,17.10
2004,08,03,01,17,17.00
2004,08,03,01,18,17.00
2004,08,03,01,19,17.00
2004,08,03,01,20,17.00
2004,08,03,01,21,17.00
2004,08,03,01,22,17.10
2004,08,03,01,23,17.00
2004,08,03,01,24,17.00
2004,08,03,01,25,17.00
2004,08,03,01,26,17.00
2004,08,03,01,27,16.90
2004,08,03,01,28,17.00
2004,08,03,01,29,17.00
2004,08,03,01,30,17.00
2004,08,03,01,31,17.10
2004,08,03,01,32,17.10
2004,08,03,01,33,17.10
2004,08,03,01,34,17.10
2004,08,03,01,35,17.10
2004,08,03,01,36,17.10
2004,08,03,01,37,17.10
2004,08,03,01,38,17.10
2004,08,03,01,39,17.10
2004,08,03,01,40,17.10
2004,08,03,01,41,17.20
2004,08,03,01,42,17.20
2004,08,03,01,43,17.20
2004,08,03,01,44,17.20
2004,08,03,01,45,17.30
2004,08,03,01,46,17.30
2004,08,03,01,47,17.30
2004,08,03,01,48,17.30
2004,08,03,01,49,17.20
2004,08,03,01,50,17.20
2004,08,03,01,51,17.20
2004,08,03,01,52,17.10
2004,08,03,01,53,17.20
2004,08,03,01,54,17.20
2004,08,03,01,55,17.20
2004,08,03,01,56,17.20
2004,08,03,01,57,17.20
2004,08,03,01,58,17.30
2004,08,03,01,59,17.30
2004,08,03,02,00,17.30
2004,08,03,02,01,17.30
2004,08,03,02,02,17.30
2004,08,03,02,03,17.30
2004,08,03,02,04,17.30
2004,08,03,02,05,17.20
2004,08,03,02,06,17.20
2004,08,03,02,07,17.20
2004,08,03,02,08,17.30
2004,08,03,02,09,17.30
2004,08,03,02,10,17.30
2004,08,03,02,11,17.30
2004,08,03,02,12,17.30
2004,08,03,02,13,17.30
2004,08,03,02,14,17.30
2004,08,03,02,15,17.30
2004,08,03,02,16,17.30
2004,08,03,02,17,17.20
2004,08,03,02,18,17.20
2004,08,03,02,19,17.20
2004,08,03,02,20,17.20
2004,08,03,02,21,17.20
2004,08,03,02,22,17.30
2004,08,03,02,23,17.30
2004,08,03,02,24,17.30
2004,08,03,02,25,17.30
2004,08,03,02,26,17.30
2004,08,03,02,27,17.30
2004,08,03,02,28,17.30
2004,08,03,02,29,17.30
2004,08,03,02,30,17.30
2004,08,03,02,31,17.40
2004,08,03,02,32,17.50
2004,08,03,02,33,17.50
2004,08,03,02,34,17.50
2004,08,03,02,35,17.60
2004,08,03,02,36,17.60
2004,08,03,02,37,17.60
2004,08,03,02,38,17.60
2004,08,03,02,39,17.60
2004,08,03,02,40,17.60
2004,08,03,02,41,17.70
2004,08,03,02,42,17.70
2004,08,03,02,43,17.80
2004,08,03,02,44,17.80
2004,08,03,02,45,17.80
2004,08,03,02,46,17.80
2004,08,03,02,47,17.90
2004,08,03,02,48,17.90
2004,08,03,02,49,17.90
2004,08,03,02,50,17.90
2004,08,03,02,51,17.90
2004,08,03,02,52,17.90
2004,08,03,02,53,17.80
2004,08,03,02,54,17.80
2004,08,03,02,55,17.80
2004,08,03,02,56,17.80
2004,08,03,02,57,17.90
2004,08,03,02,58,17.90
2004,08,03,02,59,17.90
2004,08,03,03,00,17.90
2004,08,03,03,01,17.90
2004,08,03,03,02,17.80
2004,08,03,03,03,17.80
2004,08,03,03,04,17.80
2004,08,03,03,05,17.80
2004,08,03,03,06,17.90
2004,08,03,03,07,17.90
2004,08,03,03,08,17.90
2004,08,03,03,09,17.90
2004,08,03,03,10,18.00
2004,08,03,03,11,18.00
2004,08,03,03,12,18.00
2004,08,03,03,13,18.00
2004,08,03,03,14,18.00
2004,08,03,03,15,18.00
2004,08,03,03,16,17.90
2004,08,03,03,17,17.90
2004,08,03,03,18,17.90
2004,08,03,03,19,17.90
2004,08,03,03,20,17.90
2004,08,03,03,21,17.90
2004,08,03,03,22,18.00
2004,08,03,03,23,18.00
2004,08,03,03,24,18.00
2004,08,03,03,25,18.00
2004,08,03,03,26,18.00
2004,08,03,03,27,18.00
2004,08,03,03,28,17.90
2004,08,03,03,29,17.90
2004,08,03,03,30,17.90
2004,08,03,03,31,17.90
2004,08,03,03,32,17.90
2004,08,03,03,33,17.90
2004,08,03,03,34,17.90
2004,08,03,03,35,17.90
2004,08,03,03,36,17.90
2004,08,03,03,37,17.80
2004,08,03,03,38,17.80
2004,08,03,03,39,17.70
2004,08,03,03,40,17.70
2004,08,03,03,41,17.60
2004,08,03,03,42,17.60
2004,08,03,03,43,17.60
2004,08,03,03,44,17.50
2004,08,03,03,45,17.50
2004,08,03,03,46,17.50
2004,08,03,03,47,17.50
2004,08,03,03,48,17.50
2004,08,03,03,49,17.50
2004,08,03,03,50,17.40
2004,08,03,03,51,17.40
2004,08,03,03,52,17.40
2004,08,03,03,53,17.40
2004,08,03,03,54,17.40
2004,08,03,03,55,17.50
2004,08,03,03,56,17.60
2004,08,03,03,57,17.60
2004,08,03,03,58,17.50
2004,08,03,03,59,17.50
2004,08,03,04,00,17.60
2004,08,03,04,01,17.60
2004,08,03,04,02,17.60
2004,08,03,04,03,17.50
2004,08,03,04,04,17.50
2004,08,03,04,05,17.60
2004,08,03,04,06,17.60
2004,08,03,04,07,17.70
2004,08,03,04,08,17.70
2004,08,03,04,09,17.70
2004,08,03,04,10,17.80
2004,08,03,04,11,17.80
2004,08,03,04,12,17.90
2004,08,03,04,13,17.90
2004,08,03,04,14,17.90
2004,08,03,04,15,17.90
2004,08,03,04,16,17.80
2004,08,03,04,17,17.80
2004,08,03,04,18,17.90
2004,08,03,04,19,17.90
2004,08,03,04,20,17.90
2004,08,03,04,21,17.80
2004,08,03,04,22,17.90
2004,08,03,04,23,17.90
2004,08,03,04,24,17.90
2004,08,03,04,25,17.90
2004,08,03,04,26,17.80
2004,08,03,04,27,17.70
2004,08,03,04,28,17.70
2004,08,03,04,29,17.50
2004,08,03,04,30,17.50
2004,08,03,04,31,17.50
2004,08,03,04,32,17.50
2004,08,03,04,33,17.50
2004,08,03,04,34,17.50
2004,08,03,04,35,17.50
2004,08,03,04,36,17.50
2004,08,03,04,37,17.50
2004,08,03,04,38,17.40
2004,08,03,04,39,17.30
2004,08,03,04,40,17.30
2004,08,03,04,41,17.20
2004,08,03,04,42,17.10
2004,08,03,04,43,17.10
2004,08,03,04,44,17.00
2004,08,03,04,45,16.80
2004,08,03,04,46,16.70
2004,08,03,04,47,16.60
2004,08,03,04,48,16.40
2004,08,03,04,49,16.30
2004,08,03,04,50,16.20
2004,08,03,04,51,16.10
2004,08,03,04,52,16.00
2004,08,03,04,53,15.90
2004,08,03,04,54,15.80
2004,08,03,04,55,15.80
2004,08,03,04,56,15.70
2004,08,03,04,57,15.70
2004,08,03,04,58,15.60
2004,08,03,04,59,15.60
2004,08,03,05,00,15.60
2004,08,03,05,01,15.50
2004,08,03,05,02,15.40
2004,08,03,05,03,15.30
2004,08,03,05,04,15.30
2004,08,03,05,05,15.30
2004,08,03,05,06,15.30
2004,08,03,05,07,15.30
2004,08,03,05,08,15.30
2004,08,03,05,09,15.30
2004,08,03,05,10,15.30
2004,08,03,05,11,15.30
2004,08,03,05,12,15.20
2004,08,03,05,13,15.20
2004,08,03,05,14,15.20
2004,08,03,05,15,15.20
2004,08,03,05,16,15.20
2004,08,03,05,17,15.20
2004,08,03,05,18,15.20
2004,08,03,05,19,15.30
2004,08,03,05,20,15.20
2004,08,03,05,21,15.10
2004,08,03,05,22,15.10
2004,08,03,05,23,15.10
2004,08,03,05,24,15.00
2004,08,03,05,25,14.90
2004,08,03,05,26,14.90
2004,08,03,05,27,14.90
2004,08,03,05,28,15.00
2004,08,03,05,29,15.00
2004,08,03,05,30,15.00
2004,08,03,05,31,15.00
2004,08,03,05,32,15.00
2004,08,03,05,33,15.00
2004,08,03,05,34,15.00
2004,08,03,05,35,15.00
2004,08,03,05,36,15.00
2004,08,03,05,37,15.00
2004,08,03,05,38,15.00
2004,08,03,05,39,15.10
2004,08,03,05,40,15.10
2004,08,03,05,41,15.10
2004,08,03,05,42,15.20
2004,08,03,05,43,15.20
2004,08,03,05,44,15.10
2004,08,03,05,45,15.10
2004,08,03,05,46,15.10
2004,08,03,05,47,15.20
2004,08,03,05,48,15.20
2004,08,03,05,49,15.20
2004,08,03,05,50,15.20
2004,08,03,05,51,15.20
2004,08,03,05,52,15.20
2004,08,03,05,53,15.10
2004,08,03,05,54,15.10
2004,08,03,05,55,15.10
2004,08,03,05,56,15.10
2004,08,03,05,57,15.10
2004,08,03,05,58,15.10
2004,08,03,05,59,14.90
2004,08,03,06,00,14.90
2004,08,03,06,01,14.80
2004,08,03,06,02,14.70
2004,08,03,06,03,14.70
2004,08,03,06,04,14.70
2004,08,03,06,05,14.60
2004,08,03,06,06,14.70
2004,08,03,06,07,14.60
2004,08,03,06,08,14.60
2004,08,03,06,09,14.60
2004,08,03,06,10,14.60
2004,08,03,06,11,14.60
2004,08,03,06,12,14.60
2004,08,03,06,13,14.60
2004,08,03,06,14,14.60
2004,08,03,06,15,14.60
2004,08,03,06,16,14.60
2004,08,03,06,17,14.60
2004,08,03,06,18,14.60
2004,08,03,06,19,14.60
2004,08,03,06,20,14.50
2004,08,03,06,21,14.50
2004,08,03,06,22,14.50
2004,08,03,06,23,14.50
2004,08,03,06,24,14.60
2004,08,03,06,25,14.60
2004,08,03,06,26,14.60
2004,08,03,06,27,14.60
2004,08,03,06,28,14.60
2004,08,03,06,29,14.60
2004,08,03,06,30,14.50
2004,08,03,06,31,14.50
2004,08,03,06,32,14.50
2004,08,03,06,33,14.60
2004,08,03,06,34,14.60
2004,08,03,06,35,14.70
2004,08,03,06,36,14.70
2004,08,03,06,37,14.70
2004,08,03,06,38,14.70
2004,08,03,06,39,14.70
2004,08,03,06,40,14.70
2004,08,03,06,41,14.70
2004,08,03,06,42,14.60
2004,08,03,06,43,14.60
2004,08,03,06,44,14.60
2004,08,03,06,45,14.60
2004,08,03,06,46,14.70
2004,08,03,06,47,14.70
2004,08,03,06,48,14.70
2004,08,03,06,49,14.70
2004,08,03,06,50,14.70
2004,08,03,06,51,14.70
2004,08,03,06,52,14.70
2004,08,03,06,53,14.70
2004,08,03,06,54,14.70
2004,08,03,06,55,14.70
2004,08,03,06,56,14.70
2004,08,03,06,57,14.60
2004,08,03,06,58,14.60
2004,08,03,06,59,14.60
2004,08,03,07,00,14.60
2004,08,03,07,01,14.70
2004,08,03,07,02,14.70
2004,08,03,07,03,14.70
2004,08,03,07,04,14.70
2004,08,03,07,05,14.80
2004,08,03,07,06,14.80
2004,08,03,07,07,14.80
2004,08,03,07,08,14.80
2004,08,03,07,09,14.80
2004,08,03,07,10,14.90
2004,08,03,07,11,14.90
2004,08,03,07,12,14.80
2004,08,03,07,13,14.80
2004,08,03,07,14,14.90
2004,08,03,07,15,14.90
2004,08,03,07,16,14.90
2004,08,03,07,17,14.90
2004,08,03,07,18,14.90
2004,08,03,07,19,14.90
2004,08,03,07,20,14.90
2004,08,03,07,21,14.90
2004,08,03,07,22,14.90
2004,08,03,07,23,14.90
2004,08,03,07,24,14.90
2004,08,03,07,25,14.90
2004,08,03,07,26,14.90
2004,08,03,07,27,14.90
2004,08,03,07,28,14.90
2004,08,03,07,29,14.90
2004,08,03,07,30,14.90
2004,08,03,07,31,14.80
2004,08,03,07,32,14.80
2004,08,03,07,33,14.80
2004,08,03,07,34,14.80
2004,08,03,07,35,14.80
2004,08,03,07,36,14.70
2004,08,03,07,37,14.70
2004,08,03,07,38,14.80
2004,08,03,07,39,14.80
2004,08,03,07,40,14.70
2004,08,03,07,41,14.70
2004,08,03,07,42,14.70
2004,08,03,07,43,14.80
2004,08,03,07,44,14.70
2004,08,03,07,45,14.70
2004,08,03,07,46,14.70
2004,08,03,07,47,14.60
2004,08,03,07,48,14.60
2004,08,03,07,49,14.60
2004,08,03,07,50,14.70
2004,08,03,07,51,14.70
2004,08,03,07,52,14.70
2004,08,03,07,53,14.80
2004,08,03,07,54,14.80
2004,08,03,07,55,14.80
2004,08,03,07,56,14.70
2004,08,03,07,57,14.70
2004,08,03,07,58,14.70
2004,08,03,07,59,14.70
2004,08,03,08,00,14.70
2004,08,03,08,01,14.70
2004,08,03,08,02,14.70
2004,08,03,08,03,14.70
2004,08,03,08,04,14.70
2004,08,03,08,05,14.70
2004,08,03,08,06,14.70
2004,08,03,08,07,14.70
2004,08,03,08,08,14.70
2004,08,03,08,09,14.70
2004,08,03,08,10,14.70
2004,08,03,08,11,14.70
2004,08,03,08,12,14.70
2004,08,03,08,13,14.70
2004,08,03,08,14,14.70
2004,08,03,08,15,14.70
2004,08,03,08,16,14.80
2004,08,03,08,17,14.80
2004,08,03,08,18,14.80
2004,08,03,08,19,14.80
2004,08,03,08,20,14.70
2004,08,03,08,21,14.70
2004,08,03,08,22,14.70
2004,08,03,08,23,14.70
2004,08,03,08,24,14.70
2004,08,03,08,25,14.70
2004,08,03,08,26,14.70
2004,08,03,08,27,14.70
2004,08,03,08,28,14.70
2004,08,03,08,29,14.70
2004,08,03,08,30,14.70
2004,08,03,08,31,14.70
2004,08,03,08,32,14.70
2004,08,03,08,33,14.80
2004,08,03,08,34,14.80
2004,08,03,08,35,14.80
2004,08,03,08,36,14.80
2004,08,03,08,37,14.80
2004,08,03,08,38,14.80
2004,08,03,08,39,14.80
2004,08,03,08,40,14.80
2004,08,03,08,41,14.80
2004,08,03,08,42,14.80
2004,08,03,08,43,14.80
2004,08,03,08,44,14.80
2004,08,03,08,45,14.70
2004,08,03,08,46,14.70
2004,08,03,08,47,14.80
2004,08,03,08,48,14.80
2004,08,03,08,49,14.70
2004,08,03,08,50,14.70
2004,08,03,08,51,14.70
2004,08,03,08,52,14.70
2004,08,03,08,53,14.70
2004,08,03,08,54,14.70
2004,08,03,08,55,14.70
2004,08,03,08,56,14.70
2004,08,03,08,57,14.70
2004,08,03,08,58,14.70
2004,08,03,08,59,14.70
2004,08,03,09,00,14.70
2004,08,03,09,01,14.70
2004,08,03,09,02,14.80
2004,08,03,09,03,14.80
2004,08,03,09,04,14.80
2004,08,03,09,05,14.80
2004,08,03,09,06,14.80
2004,08,03,09,07,14.80
2004,08,03,09,08,14.80
2004,08,03,09,09,14.80
2004,08,03,09,10,14.80
2004,08,03,09,11,14.80
2004,08,03,09,12,14.80
2004,08,03,09,13,14.90
2004,08,03,09,14,14.90
2004,08,03,09,15,14.80
2004,08,03,09,16,14.80
2004,08,03,09,17,14.80
2004,08,03,09,18,14.80
2004,08,03,09,19,14.90
2004,08,03,09,20,14.90
2004,08,03,09,21,14.80
2004,08,03,09,22,14.80
2004,08,03,09,23,14.80
2004,08,03,09,24,14.80
2004,08,03,09,25,14.90
2004,08,03,09,26,14.90
2004,08,03,09,27,15.00
2004,08,03,09,28,15.00
2004,08,03,09,29,15.00
2004,08,03,09,30,15.00
2004,08,03,09,31,15.00
2004,08,03,09,32,15.00
2004,08,03,09,33,15.00
2004,08,03,09,34,15.00
2004,08,03,09,35,15.00
2004,08,03,09,36,15.00
2004,08,03,09,37,15.00
2004,08,03,09,38,15.00
2004,08,03,09,39,15.00
2004,08,03,09,40,15.00
2004,08,03,09,41,14.90
2004,08,03,09,42,15.00
2004,08,03,09,43,15.00
2004,08,03,09,44,15.10
2004,08,03,09,45,15.00
2004,08,03,09,46,15.00
2004,08,03,09,47,15.00
2004,08,03,09,48,15.00
2004,08,03,09,49,15.00
2004,08,03,09,50,15.00
2004,08,03,09,51,14.90
2004,08,03,09,52,14.90
2004,08,03,09,53,14.90
2004,08,03,09,54,15.00
2004,08,03,09,55,15.00
2004,08,03,09,56,15.00
2004,08,03,09,57,15.00
2004,08,03,09,58,15.00
2004,08,03,09,59,15.00
2004,08,03,10,00,15.00
2004,08,03,10,01,15.00
2004,08,03,10,02,15.00
2004,08,03,10,03,15.00
2004,08,03,10,04,15.10
2004,08,03,10,05,15.10
2004,08,03,10,06,15.10
2004,08,03,10,07,15.10
2004,08,03,10,08,15.20
2004,08,03,10,09,15.20
2004,08,03,10,10,15.20
2004,08,03,10,11,15.10
2004,08,03,10,12,15.10
2004,08,03,10,13,15.20
2004,08,03,10,14,15.20
2004,08,03,10,15,15.20
2004,08,03,10,16,15.20
2004,08,03,10,17,15.30
2004,08,03,10,18,15.30
2004,08,03,10,19,15.30
2004,08,03,10,20,15.30
2004,08,03,10,21,15.30
2004,08,03,10,22,15.30
2004,08,03,10,23,15.30
2004,08,03,10,24,15.30
2004,08,03,10,25,15.30
2004,08,03,10,26,15.30
2004,08,03,10,27,15.30
2004,08,03,10,28,15.30
2004,08,03,10,29,15.30
2004,08,03,10,30,15.30
2004,08,03,10,31,15.30
2004,08,03,10,32,15.40
2004,08,03,10,33,15.40
2004,08,03,10,34,15.40
2004,08,03,10,35,15.40
2004,08,03,10,36,15.50
2004,08,03,10,37,15.50
2004,08,03,10,38,15.50
2004,08,03,10,39,15.60
2004,08,03,10,40,15.50
2004,08,03,10,41,15.60
2004,08,03,10,42,15.60
2004,08,03,10,43,15.60
2004,08,03,10,44,15.50
2004,08,03,10,45,15.50
2004,08,03,10,46,15.50
2004,08,03,10,47,15.50
2004,08,03,10,48,15.50
2004,08,03,10,49,15.50
2004,08,03,10,50,15.50
2004,08,03,10,51,15.50
2004,08,03,10,52,15.50
2004,08,03,10,53,15.50
2004,08,03,10,54,15.50
2004,08,03,10,55,15.50
2004,08,03,10,56,15.50
2004,08,03,10,57,15.50
2004,08,03,10,58,15.40
2004,08,03,10,59,15.50
2004,08,03,11,00,15.50
2004,08,03,11,01,15.50
2004,08,03,11,02,15.40
2004,08,03,11,03,15.40
2004,08,03,11,04,15.40
2004,08,03,11,05,15.40
2004,08,03,11,06,15.30
2004,08,03,11,07,15.30
2004,08,03,11,08,15.30
2004,08,03,11,09,15.40
2004,08,03,11,10,15.40
2004,08,03,11,11,15.40
2004,08,03,11,12,15.40
2004,08,03,11,13,15.40
2004,08,03,11,14,15.40
2004,08,03,11,15,15.50
2004,08,03,11,16,15.50
2004,08,03,11,17,15.40
2004,08,03,11,18,15.50
2004,08,03,11,19,15.50
2004,08,03,11,20,15.50
2004,08,03,11,21,15.60
2004,08,03,11,22,15.70
2004,08,03,11,23,15.80
2004,08,03,11,24,15.80
2004,08,03,11,25,15.80
2004,08,03,11,26,15.80
2004,08,03,11,27,15.80
2004,08,03,11,28,15.80
2004,08,03,11,29,15.90
2004,08,03,11,30,15.80
2004,08,03,11,31,15.90
2004,08,03,11,32,15.90
2004,08,03,11,33,15.90
2004,08,03,11,34,15.90
2004,08,03,11,35,16.00
2004,08,03,11,36,16.10
2004,08,03,11,37,16.10
2004,08,03,11,38,16.10
2004,08,03,11,39,16.10
2004,08,03,11,40,16.10
2004,08,03,11,41,16.10
2004,08,03,11,42,16.20
2004,08,03,11,43,16.20
2004,08,03,11,44,16.20
2004,08,03,11,45,16.20
2004,08,03,11,46,16.20
2004,08,03,11,47,16.30
2004,08,03,11,48,16.30
2004,08,03,11,49,16.30
2004,08,03,11,50,16.40
2004,08,03,11,51,16.40
2004,08,03,11,52,16.40
2004,08,03,11,53,16.40
2004,08,03,11,54,16.40
2004,08,03,11,55,16.40
2004,08,03,11,56,16.40
2004,08,03,11,57,16.40
2004,08,03,11,58,16.40
2004,08,03,11,59,16.40
2004,08,03,12,00,16.40
2004,08,03,12,01,16.40
2004,08,03,12,02,16.40
2004,08,03,12,03,16.50
2004,08,03,12,04,16.70
2004,08,03,12,05,16.70
2004,08,03,12,06,16.70
2004,08,03,12,07,16.70
2004,08,03,12,08,16.70
2004,08,03,12,09,16.70
2004,08,03,12,10,16.70
2004,08,03,12,11,16.70
2004,08,03,12,12,16.70
2004,08,03,12,13,16.70
2004,08,03,12,14,16.60
2004,08,03,12,15,16.60
2004,08,03,12,16,16.60
2004,08,03,12,17,16.60
2004,08,03,12,18,16.60
2004,08,03,12,19,16.60
2004,08,03,12,20,16.60
2004,08,03,12,21,16.70
2004,08,03,12,22,16.80
2004,08,03,12,23,16.90
2004,08,03,12,24,16.90
2004,08,03,12,25,17.00
2004,08,03,12,26,17.00
2004,08,03,12,27,17.10
2004,08,03,12,28,17.10
2004,08,03,12,29,17.10
2004,08,03,12,30,17.10
2004,08,03,12,31,17.00
2004,08,03,12,32,17.00
2004,08,03,12,33,17.00
2004,08,03,12,34,17.00
2004,08,03,12,35,17.10
2004,08,03,12,36,17.10
2004,08,03,12,37,17.10
2004,08,03,12,38,17.20
2004,08,03,12,39,17.20
2004,08,03,12,40,17.20
2004,08,03,12,41,17.20
2004,08,03,12,42,17.30
2004,08,03,12,43,17.40
2004,08,03,12,44,17.30
2004,08,03,12,45,17.30
2004,08,03,12,46,17.30
2004,08,03,12,47,17.40
2004,08,03,12,48,17.50
2004,08,03,12,49,17.50
2004,08,03,12,50,17.50
2004,08,03,12,51,17.40
2004,08,03,12,52,17.40
2004,08,03,12,53,17.30
2004,08,03,12,54,17.20
2004,08,03,12,55,17.20
2004,08,03,12,56,17.20
2004,08,03,12,57,17.10
2004,08,03,12,58,17.10
2004,08,03,12,59,17.10
2004,08,03,13,00,17.00
2004,08,03,13,01,17.10
2004,08,03,13,02,17.00
2004,08,03,13,03,17.00
2004,08,03,13,04,17.00
2004,08,03,13,05,16.90
2004,08,03,13,06,16.90
2004,08,03,13,07,17.00
2004,08,03,13,08,17.10
2004,08,03,13,09,17.20
2004,08,03,13,10,17.20
2004,08,03,13,11,17.10
2004,08,03,13,12,16.90
2004,08,03,13,13,16.90
2004,08,03,13,14,16.80
2004,08,03,13,15,16.80
2004,08,03,13,16,16.90
2004,08,03,13,17,16.90
2004,08,03,13,18,16.80
2004,08,03,13,19,16.90
2004,08,03,13,20,17.00
2004,08,03,13,21,17.00
2004,08,03,13,22,17.10
2004,08,03,13,23,17.30
2004,08,03,13,24,17.30
2004,08,03,13,25,17.30
2004,08,03,13,26,17.30
2004,08,03,13,27,17.30
2004,08,03,13,28,17.30
2004,08,03,13,29,17.20
2004,08,03,13,30,17.20
2004,08,03,13,31,17.10
2004,08,03,13,32,17.10
2004,08,03,13,33,17.10
2004,08,03,13,34,17.20
2004,08,03,13,35,17.30
2004,08,03,13,36,17.30
2004,08,03,13,37,17.30
2004,08,03,13,38,17.30
2004,08,03,13,39,17.30
2004,08,03,13,40,17.30
2004,08,03,13,41,17.30
2004,08,03,13,42,17.30
2004,08,03,13,43,17.40
2004,08,03,13,44,17.40
2004,08,03,13,45,17.50
2004,08,03,13,46,17.50
2004,08,03,13,47,17.50
2004,08,03,13,48,17.40
2004,08,03,13,49,17.40
2004,08,03,13,50,17.40
2004,08,03,13,51,17.40
2004,08,03,13,52,17.40
2004,08,03,13,53,17.40
2004,08,03,13,54,17.40
2004,08,03,13,55,17.50
2004,08,03,13,56,17.60
2004,08,03,13,57,17.70
2004,08,03,13,58,17.80
2004,08,03,13,59,17.80
2004,08,03,14,00,17.80
2004,08,03,14,01,17.80
2004,08,03,14,02,17.90
2004,08,03,14,03,17.80
2004,08,03,14,04,17.80
2004,08,03,14,05,17.70
2004,08,03,14,06,17.50
2004,08,03,14,07,17.50
2004,08,03,14,08,17.40
2004,08,03,14,09,17.30
2004,08,03,14,10,17.30
2004,08,03,14,11,17.40
2004,08,03,14,12,17.40
2004,08,03,14,13,17.40
2004,08,03,14,14,17.50
2004,08,03,14,15,17.50
2004,08,03,14,16,17.70
2004,08,03,14,17,17.80
2004,08,03,14,18,17.80
2004,08,03,14,19,17.90
2004,08,03,14,20,18.10
2004,08,03,14,21,18.10
2004,08,03,14,22,18.20
2004,08,03,14,23,18.20
2004,08,03,14,24,18.20
2004,08,03,14,25,18.10
2004,08,03,14,26,18.00
2004,08,03,14,27,17.90
2004,08,03,14,28,18.00
2004,08,03,14,29,18.00
2004,08,03,14,30,18.10
2004,08,03,14,31,18.20
2004,08,03,14,32,18.20
2004,08,03,14,33,18.20
2004,08,03,14,34,18.20
2004,08,03,14,35,18.20
2004,08,03,14,36,18.10
2004,08,03,14,37,18.10
2004,08,03,14,38,18.10
2004,08,03,14,39,18.20
2004,08,03,14,40,18.20
2004,08,03,14,41,18.10
2004,08,03,14,42,18.00
2004,08,03,14,43,17.90
2004,08,03,14,44,17.90
2004,08,03,14,45,17.80
2004,08,03,14,46,17.60
2004,08,03,14,47,17.50
2004,08,03,14,48,17.40
2004,08,03,14,49,17.20
2004,08,03,14,50,16.90
2004,08,03,14,51,16.90
2004,08,03,14,52,16.80
2004,08,03,14,53,16.80
2004,08,03,14,54,16.80
2004,08,03,14,55,16.80
2004,08,03,14,56,16.90
2004,08,03,14,57,16.90
2004,08,03,14,58,16.90
2004,08,03,14,59,16.90
2004,08,03,15,00,16.90
2004,08,03,15,01,16.80
2004,08,03,15,02,16.80
2004,08,03,15,03,16.80
2004,08,03,15,04,16.90
2004,08,03,15,05,16.90
2004,08,03,15,06,16.90
2004,08,03,15,07,17.00
2004,08,03,15,08,17.00
2004,08,03,15,09,17.00
2004,08,03,15,10,17.10
2004,08,03,15,11,17.20
2004,08,03,15,12,17.40
2004,08,03,15,13,17.50
2004,08,03,15,14,17.50
2004,08,03,15,15,17.50
2004,08,03,15,16,17.60
2004,08,03,15,17,17.70
2004,08,03,15,18,17.90
2004,08,03,15,19,18.00
2004,08,03,15,20,18.10
2004,08,03,15,21,18.20
2004,08,03,15,22,18.20
2004,08,03,15,23,18.20
2004,08,03,15,24,18.30
2004,08,03,15,25,18.30
2004,08,03,15,26,18.40
2004,08,03,15,27,18.30
2004,08,03,15,28,18.30
2004,08,03,15,29,18.40
2004,08,03,15,30,18.40
2004,08,03,15,31,18.20
2004,08,03,15,32,18.20
2004,08,03,15,33,18.20
2004,08,03,15,34,18.20
2004,08,03,15,35,18.20
2004,08,03,15,36,18.20
2004,08,03,15,37,18.20
2004,08,03,15,38,18.20
2004,08,03,15,39,18.30
2004,08,03,15,40,18.50
2004,08,03,15,41,18.50
2004,08,03,15,42,18.50
2004,08,03,15,43,18.50
2004,08,03,15,44,18.50
2004,08,03,15,45,18.50
2004,08,03,15,46,18.60
2004,08,03,15,47,18.50
2004,08,03,15,48,18.50
2004,08,03,15,49,18.50
2004,08,03,15,50,18.50
2004,08,03,15,51,18.40
2004,08,03,15,52,18.30
2004,08,03,15,53,18.40
2004,08,03,15,54,18.50
2004,08,03,15,55,18.50
2004,08,03,15,56,18.50
2004,08,03,15,57,18.40
2004,08,03,15,58,18.30
2004,08,03,15,59,18.30
2004,08,03,16,00,18.20
2004,08,03,16,01,18.20
2004,08,03,16,02,18.20
2004,08,03,16,03,18.20
2004,08,03,16,04,18.10
2004,08,03,16,05,18.00
2004,08,03,16,06,18.00
2004,08,03,16,07,18.00
2004,08,03,16,08,18.00
2004,08,03,16,09,17.90
2004,08,03,16,10,18.00
2004,08,03,16,11,18.10
2004,08,03,16,12,18.10
2004,08,03,16,13,18.10
2004,08,03,16,14,18.10
2004,08,03,16,15,18.00
2004,08,03,16,16,18.10
2004,08,03,16,17,18.00
2004,08,03,16,18,17.90
2004,08,03,16,19,17.90
2004,08,03,16,20,17.90
2004,08,03,16,21,18.00
2004,08,03,16,22,18.10
2004,08,03,16,23,18.10
2004,08,03,16,24,18.20
2004,08,03,16,25,18.20
2004,08,03,16,26,18.40
2004,08,03,16,27,18.50
2004,08,03,16,28,18.50
2004,08,03,16,29,18.60
2004,08,03,16,30,18.70
2004,08,03,16,31,18.90
2004,08,03,16,32,19.00
2004,08,03,16,33,19.00
2004,08,03,16,34,19.10
2004,08,03,16,35,19.10
2004,08,03,16,36,19.30
2004,08,03,16,37,19.40
2004,08,03,16,38,19.40
2004,08,03,16,39,19.50
2004,08,03,16,40,19.60
2004,08,03,16,41,19.60
2004,08,03,16,42,19.70
2004,08,03,16,43,19.80
2004,08,03,16,44,19.80
2004,08,03,16,45,19.90
2004,08,03,16,46,20.00
2004,08,03,16,47,19.90
2004,08,03,16,48,19.90
2004,08,03,16,49,19.90
2004,08,03,16,50,19.90
2004,08,03,16,51,20.00
2004,08,03,16,52,19.90
2004,08,03,16,53,20.00
2004,08,03,16,54,20.10
2004,08,03,16,55,20.10
2004,08,03,16,56,20.00
2004,08,03,16,57,19.80
2004,08,03,16,58,19.70
2004,08,03,16,59,19.80
2004,08,03,17,00,19.90
2004,08,03,17,01,19.80
2004,08,03,17,02,19.80
2004,08,03,17,03,19.90
2004,08,03,17,04,19.90
2004,08,03,17,05,19.90
2004,08,03,17,06,20.00
2004,08,03,17,07,20.00
2004,08,03,17,08,20.10
2004,08,03,17,09,20.00
2004,08,03,17,10,20.10
2004,08,03,17,11,20.10
2004,08,03,17,12,20.20
2004,08,03,17,13,20.30
2004,08,03,17,14,20.20
2004,08,03,17,15,20.10
2004,08,03,17,16,20.10
2004,08,03,17,17,19.90
2004,08,03,17,18,19.80
2004,08,03,17,19,19.90